When you browse on this site, cookies collect data to enhance your experience and personalize the content and advertising you see.
Visit our Privacy Policy to learn more. By continuing to use the site, you agree to this use of cookies and data.
  • In Hungary
  • List of Countries
  • For 7 days
  • Water Temperature
  • Satellite Maps
  • Weather Map
  • News
  • Weather Widgets
  • user-avatar
    Login

    Hourly Weather Puerto Ayacucho

    Today, 19 March, Tuesday

    Time Temperature Precipitation Wind Pressure Humidity
    00:00 +27°C° 0.4 mm 2 mps 751 mmHg 76%
    01:00 +27°C° 0 mm 2 mps 750 mmHg 78%
    02:00 +27°C° 0.1 mm 1 mps 750 mmHg 78%
    03:00 +27°C° 0.1 mm 1 mps 750 mmHg 77%
    04:00 +27°C° 0.1 mm 1 mps 750 mmHg 76%
    05:00 +28°C° 0 mm 1 mps 751 mmHg 74%
    06:00 +28°C° 0 mm 1 mps 751 mmHg 72%
    07:00 +29°C° 0 mm 1 mps 752 mmHg 70%
    08:00 +31°C° 0 mm 1 mps 752 mmHg 65%
    09:00 +32°C° 0 mm 1 mps 752 mmHg 60%
    10:00 +33°C° 0 mm 1 mps 752 mmHg 55%
    11:00 +34°C° 0.1 mm 1 mps 752 mmHg 53%
    12:00 +36°C° 0.1 mm 2 mps 751 mmHg 51%
    13:00 +37°C° 0.1 mm 2 mps 750 mmHg 50%
    14:00 +37°C° 0.6 mm 2 mps 750 mmHg 53%
    15:00 +36°C° 0.6 mm 2 mps 750 mmHg 56%
    16:00 +35°C° 0.6 mm 3 mps 749 mmHg 59%
    17:00 +34°C° 0.2 mm 3 mps 750 mmHg 65%
    18:00 +31°C° 0.2 mm 3 mps 750 mmHg 71%
    19:00 +29°C° 0.2 mm 3 mps 750 mmHg 77%
    20:00 +29°C° 1.6 mm 3 mps 751 mmHg 79%
    21:00 +28°C° 1.6 mm 2 mps 751 mmHg 81%
    22:00 +27°C° 1.6 mm 2 mps 752 mmHg 83%
    23:00 +27°C° 0.5 mm 2 mps 751 mmHg 82%

    Tomorrow, 20 March, Wednesday

    Time Temperature Precipitation Wind Pressure Humidity
    00:00 +27°C° 0.5 mm 2 mps 751 mmHg 82%
    01:00 +27°C° 0.5 mm 1 mps 750 mmHg 81%
    02:00 +27°C° 0.1 mm 1 mps 750 mmHg 81%
    03:00 +27°C° 0.1 mm 1 mps 750 mmHg 80%
    04:00 +27°C° 0.1 mm 1 mps 750 mmHg 80%
    05:00 +27°C° 0 mm 1 mps 751 mmHg 78%
    06:00 +26°C° 0 mm 0 mps 751 mmHg 76%
    07:00 +27°C° 0 mm 0 mps 752 mmHg 75%
    08:00 +30°C° 0 mm 1 mps 752 mmHg 70%
    09:00 +31°C° 0 mm 1 mps 752 mmHg 65%
    10:00 +32°C° 0 mm 1 mps 752 mmHg 60%
    11:00 +34°C° 0 mm 1 mps 751 mmHg 56%
    12:00 +35°C° 0 mm 1 mps 750 mmHg 52%
    13:00 +36°C° 0 mm 1 mps 749 mmHg 48%
    14:00 +36°C° 0.3 mm 1 mps 749 mmHg 48%
    15:00 +36°C° 0.3 mm 1 mps 749 mmHg 48%
    16:00 +34°C° 0.3 mm 0 mps 748 mmHg 48%
    17:00 +34°C° 0 mm 1 mps 749 mmHg 54%
    18:00 +32°C° 0 mm 2 mps 749 mmHg 60%
    19:00 +31°C° 0 mm 3 mps 750 mmHg 67%
    20:00 +30°C° 0 mm 3 mps 750 mmHg 66%
    21:00 +30°C° 0 mm 2 mps 751 mmHg 66%
    22:00 +30°C° 0 mm 2 mps 751 mmHg 66%
    23:00 +29°C° 0 mm 2 mps 751 mmHg 66%

    Day after tomorrow, 21 March, Thursday

    Time Temperature Precipitation Wind Pressure Humidity
    00:00 +29°C° 0 mm 1 mps 750 mmHg 65%
    01:00 +29°C° 0 mm 1 mps 750 mmHg 64%
    02:00 +29°C° 0 mm 1 mps 750 mmHg 65%
    03:00 +29°C° 0 mm 1 mps 750 mmHg 66%
    04:00 +29°C° 0 mm 1 mps 750 mmHg 67%
    05:00 +29°C° 0 mm 1 mps 750 mmHg 66%
    06:00 +29°C° 0 mm 1 mps 751 mmHg 66%
    07:00 +30°C° 0 mm 1 mps 751 mmHg 66%
    08:00 +31°C° 0 mm 1 mps 751 mmHg 62%
    09:00 +34°C° 0 mm 2 mps 752 mmHg 58%
    10:00 +35°C° 0 mm 3 mps 752 mmHg 53%
    11:00 +36°C° 0 mm 2 mps 751 mmHg 51%
    12:00 +37°C° 0 mm 2 mps 750 mmHg 50%
    13:00 +37°C° 0 mm 2 mps 749 mmHg 48%
    14:00 +37°C° 0.7 mm 2 mps 749 mmHg 52%
    15:00 +36°C° 0.7 mm 2 mps 748 mmHg 56%
    16:00 +36°C° 0.7 mm 2 mps 748 mmHg 60%
    17:00 +34°C° 0.4 mm 3 mps 748 mmHg 65%
    18:00 +31°C° 0.4 mm 3 mps 749 mmHg 71%
    19:00 +29°C° 0.4 mm 4 mps 750 mmHg 76%
    20:00 +29°C° 0.9 mm 3 mps 750 mmHg 78%
    21:00 +28°C° 0.9 mm 3 mps 751 mmHg 79%
    22:00 +28°C° 0.9 mm 2 mps 751 mmHg 81%
    23:00 +28°C° 0 mm 2 mps 751 mmHg 80%

    22 March, Friday

    Time Temperature Precipitation Wind Pressure Humidity
    00:00 +28°C° 0 mm 2 mps 750 mmHg 78%
    01:00 +28°C° 0 mm 1 mps 750 mmHg 77%
    02:00 +28°C° 0 mm 1 mps 750 mmHg 75%
    03:00 +28°C° 0 mm 1 mps 750 mmHg 74%
    04:00 +28°C° 0 mm 1 mps 750 mmHg 73%
    05:00 +29°C° 0 mm 1 mps 750 mmHg 72%
    06:00 +29°C° 0 mm 1 mps 751 mmHg 70%
    07:00 +30°C° 0 mm 1 mps 752 mmHg 69%
    08:00 +31°C° 0 mm 1 mps 752 mmHg 63%
    09:00 +33°C° 0 mm 1 mps 752 mmHg 58%
    10:00 +35°C° 0 mm 2 mps 752 mmHg 52%
    11:00 +35°C° 0.2 mm 1 mps 751 mmHg 51%
    12:00 +35°C° 0.2 mm 1 mps 750 mmHg 50%
    13:00 +36°C° 0.2 mm 1 mps 749 mmHg 49%
    14:00 +37°C° 0.4 mm 2 mps 749 mmHg 52%
    15:00 +36°C° 0.4 mm 3 mps 749 mmHg 55%
    16:00 +35°C° 0.4 mm 3 mps 748 mmHg 58%
    17:00 +34°C° 0.1 mm 3 mps 749 mmHg 62%
    18:00 +31°C° 0.1 mm 3 mps 750 mmHg 66%
    19:00 +30°C° 0.1 mm 3 mps 750 mmHg 70%
    20:00 +29°C° 1.3 mm 2 mps 751 mmHg 74%
    21:00 +28°C° 1.3 mm 2 mps 752 mmHg 79%
    22:00 +27°C° 1.3 mm 2 mps 752 mmHg 83%
    23:00 +27°C° 1.2 mm 2 mps 752 mmHg 84%

    23 March, Saturday

    Time Temperature Precipitation Wind Pressure Humidity
    00:00 +27°C° 1.2 mm 2 mps 751 mmHg 85%
    01:00 +26°C° 1.2 mm 2 mps 751 mmHg 85%
    02:00 +26°C° 0.5 mm 1 mps 751 mmHg 85%
    03:00 +26°C° 0.5 mm 1 mps 751 mmHg 84%
    04:00 +26°C° 0.5 mm 1 mps 751 mmHg 84%
    05:00 +27°C° 0 mm 1 mps 752 mmHg 81%
    06:00 +28°C° 0 mm 1 mps 752 mmHg 79%
    07:00 +28°C° 0 mm 1 mps 753 mmHg 76%
    08:00 +30°C° 0 mm 1 mps 753 mmHg 69%
    09:00 +31°C° 0 mm 2 mps 753 mmHg 63%
    10:00 +34°C° 0 mm 2 mps 753 mmHg 56%
    11:00 +34°C° 0.2 mm 2 mps 752 mmHg 57%
    12:00 +35°C° 0.2 mm 2 mps 752 mmHg 57%
    13:00 +35°C° 0.2 mm 2 mps 751 mmHg 57%
    14:00 +34°C° 1.1 mm 2 mps 750 mmHg 62%
    15:00 +34°C° 1.1 mm 3 mps 750 mmHg 67%
    16:00 +33°C° 1.1 mm 3 mps 749 mmHg 72%
    17:00 +31°C° 0.1 mm 3 mps 750 mmHg 75%
    18:00 +30°C° 0.1 mm 3 mps 751 mmHg 78%
    19:00 +28°C° 0.1 mm 3 mps 751 mmHg 81%
    20:00 +28°C° 0.1 mm 3 mps 752 mmHg 80%
    21:00 +28°C° 0.1 mm 2 mps 752 mmHg 80%
    22:00 +28°C° 0.1 mm 2 mps 752 mmHg 80%
    23:00 +28°C° 0 mm 2 mps 752 mmHg 79%

    24 March, Sunday

    Time Temperature Precipitation Wind Pressure Humidity
    00:00 +28°C° 0 mm 1 mps 752 mmHg 79%
    01:00 +28°C° 0 mm 1 mps 751 mmHg 78%
    02:00 +27°C° 0.1 mm 1 mps 751 mmHg 79%
    03:00 +27°C° 0.1 mm 1 mps 751 mmHg 79%
    04:00 +27°C° 0.1 mm 1 mps 751 mmHg 79%
    05:00 +28°C° 0.1 mm 1 mps 752 mmHg 78%
    06:00 +26°C° 0.1 mm 0 mps 753 mmHg 76%
    07:00 +27°C° 0.1 mm 0 mps 753 mmHg 74%
    08:00 +30°C° 0 mm 1 mps 753 mmHg 67%
    09:00 +32°C° 0 mm 2 mps 753 mmHg 61%
    10:00 +35°C° 0 mm 2 mps 753 mmHg 54%
    11:00 +36°C° 0 mm 2 mps 752 mmHg 50%
    12:00 +36°C° 0 mm 2 mps 751 mmHg 47%
    13:00 +37°C° 0 mm 2 mps 750 mmHg 44%
    14:00 +36°C° 0.2 mm 1 mps 750 mmHg 45%
    15:00 +36°C° 0.2 mm 1 mps 749 mmHg 46%
    16:00 +36°C° 0.2 mm 1 mps 749 mmHg 47%
    17:00 +35°C° 0.1 mm 2 mps 749 mmHg 54%
    18:00 +32°C° 0.1 mm 2 mps 750 mmHg 60%
    19:00 +31°C° 0.1 mm 3 mps 750 mmHg 67%
    20:00 +30°C° 0 mm 3 mps 751 mmHg 68%
    21:00 +30°C° 0 mm 2 mps 751 mmHg 68%
    22:00 +29°C° 0 mm 2 mps 752 mmHg 69%
    23:00 +29°C° 0.2 mm 2 mps 751 mmHg 72%
    Show more